Location: East Guldeford
(50.9500°N, 0.7500°E)
Time: 09:20:09
(UTC+00:00)

ATLAS 2AS CENTAUR R/B - Pass Details

Date: 12 May 2021
Orbit: 949 x 1263 km, 63.7° (Epoch: 07 May)

Event Time Altitude Azimuth Distance (km) Brightness Sun altitude
Rises 22:27:35 0° 316° (NW) 4,108 7.0 -18.2°
Reaches altitude 10° 22:30:29 10° 311° (NW) 3,100 6.0 -18.3°
Maximum altitude 22:37:33 51° 239° (WSW) 1,376 3.2 -18.7°
Enters shadow 22:40:56 29° 179° (S) 1,883 3.4 -18.9°
